Location: Izdebno
(52.6670°N, 16.2170°E)
Time: 13:12:42
(UTC+02:00)

Vanguard 2 - Pass Details

Date: 05 February 2023
Orbit: 553 x 2927 km, 32.9° (Epoch: 26 March)

Event Time Altitude Azimuth Distance (km) Brightness Sun altitude
Rises 02:28:42 0° 267° (W) 6,502 - -44.2°
Reaches altitude 10° 02:34:01 10° 256° (WSW) 5,663 - -43.6°
Maximum altitude 02:46:31 25° 211° (SSW) 4,568 - -42.1°
Exits shadow 02:56:14 14° 171° (S) 5,054 11.4 -40.9°
Drops below altitude 10° 02:58:20 10° 164° (SSE) 5,306 11.6 -40.6°
Sets 03:03:09 0° 153° (SSE) 6,023 12.1 -40.0°
